Miscellaneous Local Product
Issued by NWS Hastings, NE

Home | Current Version | Previous Version | Text Only | Print | Product List | Glossary On
Versions: 1 2 3 4 5 6 7 8 9 10 11 12 13 14 15 16 17 18 19 20 21 22 23 24 25 26 27 28 29 30 31 32 33 34 35 36 37 38 39 40 41 42 43 44 45 46 47 48 49 50
000
AXUS43 KGID 011810
MISGRI

GID CWA HOURLY WEATHER ROUNDUP
NATIONAL WEATHER SERVICE HASTINGS NE
100 PM CDT WED OCT 01 2014

NOTE: "FAIR" INDICATES FEW OR NO CLOUDS BELOW 12,000 FEET WITH NO
SIGNIFICANT WEATHER AND/OR OBSTRUCTIONS TO VISIBILITY.

...SOUTH CENTRAL NEBRASKA...

CITY           SKY/WX    TMP DP  RH WIND       PRES   REMARKS
GRAND ISLAND   FAIR      73  58  59 CALM      29.77F
HASTINGS       FAIR      75  52  44 E3        29.77F
KEARNEY        FAIR      72  55  56 SW3       29.79S
ORD            MOSUNNY   73  50  44 N7        29.77S
YORK           FAIR      73  63  68 SE3       29.76S
AURORA         FAIR      74  57  56 CALM      29.76F
LEXINGTON      PTSUNNY   72  52  48 CALM      29.80S
HOLDREGE       FAIR      73  50  43 CALM      29.78F
HEBRON         FAIR      73  62  69 E3        29.76S

...NEBRASKA PANHANDLE...

CITY           SKY/WX    TMP DP  RH WIND       PRES   REMARKS
CHADRON        PTSUNNY   61  47  59 W10       29.87F
ALLIANCE       MOSUNNY   63  45  51 VRB3      29.87F
SCOTTSBLUFF    SUNNY     63  45  51 NW8G16    29.89S
SIDNEY         MOSUNNY   64  42  44 NE5       29.89S

...WESTERN AND NORTH CENTRAL NEBRASKA...

CITY           SKY/WX    TMP DP  RH WIND       PRES   REMARKS
VALENTINE      MOSUNNY   65  47  52 N7        29.83S
AINSWORTH      SUNNY     67  48  49 N7        29.82S
ONEILL         SUNNY     71  53  52 N13G18    29.79R
BROKEN BOW     PTSUNNY   74  49  41 E8        29.80R
IMPERIAL       MOSUNNY   68  46  45 NE8       29.84F
NORTH PLATTE   PTSUNNY   72  47  40 CALM      29.82S
MCCOOK         PTSUNNY   72  48  42 MISG      29.81F

...EASTERN NEBRASKA...

CITY           SKY/WX    TMP DP  RH WIND       PRES   REMARKS
NORFOLK        FAIR      75  57  53 SW6       29.75F
SO SIOUX CITY  FAIR      72  61  68 VRB7      29.74S
TEKAMAH        FAIR      74  62  66 S9        29.74S
COLUMBUS       FAIR      73  59  60 NW5       29.77S
ALBION         FAIR      73  54  52 SW3       29.77S
OMAHA EPPLEY   PTSUNNY   72  63  73 SE6       29.75F
OFFUTT AFB     CLOUDY    70  68  94 E2        29.75S
MILLARD        FAIR      71  64  77 CALM      29.75F
LINCOLN        FAIR      70  63  78 E5        29.76F
NEBRASKA CITY  CLOUDY    71  67  89 NW6       29.75S
BEATRICE       PTSUNNY   72  64  76 N3        29.75F
FALLS CITY     FAIR      75  65  70 SW6       29.74F

...NORTHERN KANSAS...

CITY           SKY/WX    TMP DP  RH WIND       PRES   REMARKS
GOODLAND       MOSUNNY   71  44  37 N8        29.85F
HILL CITY      FAIR      73  59  61 VRB3      29.78F
NORTON         CLEAR     73  54  49 CALM      29.78
PHILLIPSBURG   SUNNY     81  59  47 CALM      29.76F
SMITH CENTER   SUNNY     77  57  50 CALM      29.76F
BELOIT         MOSUNNY   70  64  83 NE6       29.75F
HAYS           CLOUDY    66  59  77 NE7       29.77F
RUSSELL        CLOUDY    68  62  81 N7        29.75F
CONCORDIA      FAIR      73  66  78 E6        29.75F
SALINA         FAIR      77  66  68 CALM      29.74F
TOPEKA         FAIR      83  66  56 W7        29.74F



USA.gov is the U.S. government's official web portal to all federal, state and local government web resources and services.